owner,sensor,date,latitude,longitude,vertical_datum,sea_water_temperature,qcFlag
BP,ioos:station:wmo:42369:3,2021-03-01T00:00:00Z,27.2130,-90.2837,449.3,67.1,11144222
BP,ioos:station:wmo:42369:3,2021-03-01T00:20:00Z,27.2129,-90.2839,449.6,67.1,11144222
BP,ioos:station:wmo:42369:3,2021-03-01T00:40:00Z,27.2128,-90.2842,449.0,67.1,11144222
BP,ioos:station:wmo:42369:3,2021-03-01T01:00:00Z,27.2127,-90.2846,448.2,67.1,11144222
BP,ioos:station:wmo:42369:3,2021-03-01T01:20:00Z,27.2126,-90.2847,449.2,67.1,11144222
BP,ioos:station:wmo:42369:3,2021-03-01T01:40:00Z,27.2125,-90.2850,449.8,67.1,11144222
BP,ioos:station:wmo:42369:3,2021-03-01T02:00:00Z,27.2123,-90.2852,449.3,67.1,11144222
BP,ioos:station:wmo:42369:3,2021-03-01T02:20:00Z,27.2121,-90.2855,449.2,67.1,11144222
BP,ioos:station:wmo:42369:3,2021-03-01T02:40:00Z,27.2119,-90.2861,449.2,67.1,11144222
BP,ioos:station:wmo:42369:3,2021-03-01T03:00:00Z,27.2117,-90.2865,449.0,67.1,11144222
BP,ioos:station:wmo:42369:3,2021-03-01T03:20:00Z,27.2117,-90.2865,449.1,67.1,11144222
BP,ioos:station:wmo:42369:3,2021-03-01T03:40:00Z,27.2111,-90.2875,449.1,67.1,11144222
BP,ioos:station:wmo:42369:3,2021-03-01T04:00:00Z,27.2108,-90.2878,448.8,67.1,11144222
BP,ioos:station:wmo:42369:3,2021-03-01T04:20:00Z,27.2105,-90.2882,448.9,67.2,11144222
BP,ioos:station:wmo:42369:3,2021-03-01T04:40:00Z,27.2102,-90.2886,448.9,67.1,11144222
BP,ioos:station:wmo:42369:3,2021-03-01T05:00:00Z,27.2098,-90.2888,448.2,67.1,11144222
BP,ioos:station:wmo:42369:3,2021-03-01T05:20:00Z,27.2096,-90.2891,449.4,67.1,11144222
BP,ioos:station:wmo:42369:3,2021-03-01T05:40:00Z,27.2093,-90.2894,448.5,67.1,11144222
BP,ioos:station:wmo:42369:3,2021-03-01T06:00:00Z,27.2090,-90.2895,449.3,67.1,11144222
BP,ioos:station:wmo:42369:3,2021-03-01T06:20:00Z,27.2088,-90.2898,449.4,67.1,11144222
BP,ioos:station:wmo:42369:3,2021-03-01T06:40:00Z,27.2088,-90.2899,447.7,67.1,11144222
BP,ioos:station:wmo:42369:3,2021-03-01T07:00:00Z,27.2087,-90.2899,449.6,67.1,11144222
BP,ioos:station:wmo:42369:3,2021-03-01T07:20:00Z,27.2088,-90.2899,450.2,67.1,11144222
BP,ioos:station:wmo:42369:3,2021-03-01T07:40:00Z,27.2089,-90.2899,449.1,67.1,11144222
BP,ioos:station:wmo:42369:3,2021-03-01T08:00:00Z,27.2089,-90.2899,450.0,67.1,11144222
BP,ioos:station:wmo:42369:3,2021-03-01T08:20:00Z,27.2090,-90.2899,449.8,67.1,11144222
BP,ioos:station:wmo:42369:3,2021-03-01T08:40:00Z,27.2091,-90.2898,449.4,67.1,11144222
BP,ioos:station:wmo:42369:3,2021-03-01T09:00:00Z,27.2093,-90.2898,450.5,67.1,11144222
BP,ioos:station:wmo:42369:3,2021-03-01T09:20:00Z,27.2094,-90.2897,450.1,67.1,11144222
BP,ioos:station:wmo:42369:3,2021-03-01T09:40:00Z,27.2096,-90.2896,450.1,67.1,11144222
BP,ioos:station:wmo:42369:3,2021-03-01T10:00:00Z,27.2096,-90.2896,449.9,67.1,11144222
BP,ioos:station:wmo:42369:3,2021-03-01T10:20:00Z,27.2098,-90.2895,450.0,67.1,11144222
BP,ioos:station:wmo:42369:3,2021-03-01T10:40:00Z,27.2099,-90.2894,449.4,67.1,11144222
BP,ioos:station:wmo:42369:3,2021-03-01T11:00:00Z,27.2101,-90.2893,449.2,67.2,11144222
BP,ioos:station:wmo:42369:3,2021-03-01T11:20:00Z,27.2104,-90.2890,449.1,67.1,11144222
BP,ioos:station:wmo:42369:3,2021-03-01T11:40:00Z,27.2107,-90.2888,449.5,67.1,11144222
BP,ioos:station:wmo:42369:3,2021-03-01T12:00:00Z,27.2109,-90.2885,450.3,67.1,11144222
BP,ioos:station:wmo:42369:3,2021-03-01T12:20:00Z,27.2112,-90.2883,449.6,67.1,11144222
BP,ioos:station:wmo:42369:3,2021-03-01T12:40:00Z,27.2114,-90.2881,449.6,67.2,11144222
BP,ioos:station:wmo:42369:3,2021-03-01T13:00:00Z,27.2116,-90.2878,448.6,67.2,11144222
BP,ioos:station:wmo:42369:3,2021-03-01T13:20:00Z,27.2118,-90.2876,448.1,67.1,11144222
BP,ioos:station:wmo:42369:3,2021-03-01T13:40:00Z,27.2120,-90.2873,449.2,67.2,11144222
BP,ioos:station:wmo:42369:3,2021-03-01T14:00:00Z,27.2122,-90.2869,448.9,67.2,11144222
BP,ioos:station:wmo:42369:3,2021-03-01T14:20:00Z,27.2124,-90.2865,449.9,67.2,11144222
BP,ioos:station:wmo:42369:3,2021-03-01T14:40:00Z,27.2126,-90.2862,449.3,67.2,11144222
BP,ioos:station:wmo:42369:3,2021-03-01T15:00:00Z,27.2127,-90.2859,448.2,67.2,11144222
BP,ioos:station:wmo:42369:3,2021-03-01T15:20:00Z,27.2128,-90.2855,448.4,67.2,11144222
BP,ioos:station:wmo:42369:3,2021-03-01T15:40:00Z,27.2129,-90.2852,448.7,67.2,11144222
BP,ioos:station:wmo:42369:3,2021-03-01T16:00:00Z,27.2129,-90.2850,449.1,67.2,11144222
BP,ioos:station:wmo:42369:3,2021-03-01T16:20:00Z,27.2130,-90.2847,448.8,67.2,11144222
BP,ioos:station:wmo:42369:3,2021-03-01T16:40:00Z,27.2131,-90.2845,447.6,67.1,11144222
BP,ioos:station:wmo:42369:3,2021-03-01T17:00:00Z,27.2131,-90.2844,448.8,67.2,11144222
BP,ioos:station:wmo:42369:3,2021-03-01T17:20:00Z,27.2131,-90.2842,448.6,67.1,11144222
BP,ioos:station:wmo:42369:3,2021-03-01T17:40:00Z,27.2131,-90.2840,447.7,67.2,11144222
BP,ioos:station:wmo:42369:3,2021-03-01T18:00:00Z,27.2131,-90.2838,449.7,67.1,11144222
BP,ioos:station:wmo:42369:3,2021-03-01T18:20:00Z,27.2131,-90.2836,448.0,67.2,11144222
BP,ioos:station:wmo:42369:3,2021-03-01T18:40:00Z,27.2131,-90.2833,448.3,67.1,11144222
BP,ioos:station:wmo:42369:3,2021-03-01T19:00:00Z,27.2131,-90.2832,448.2,67.2,11144222
BP,ioos:station:wmo:42369:3,2021-03-01T19:20:00Z,27.2131,-90.2829,448.1,67.1,11144222
BP,ioos:station:wmo:42369:3,2021-03-01T19:40:00Z,27.2131,-90.2827,447.7,67.2,11144222
BP,ioos:station:wmo:42369:3,2021-03-01T20:00:00Z,27.2131,-90.2825,447.4,67.1,11144222
BP,ioos:station:wmo:42369:3,2021-03-01T20:20:00Z,27.2130,-90.2823,447.9,67.2,11144222
BP,ioos:station:wmo:42369:3,2021-03-01T20:40:00Z,27.2130,-90.2822,448.1,67.1,11144222
BP,ioos:station:wmo:42369:3,2021-03-01T21:00:00Z,27.2129,-90.2820,448.3,67.1,11144222
BP,ioos:station:wmo:42369:3,2021-03-01T21:20:00Z,27.2127,-90.2818,447.6,67.1,11144222
BP,ioos:station:wmo:42369:3,2021-03-01T21:40:00Z,27.2127,-90.2816,446.7,67.1,11144222
BP,ioos:station:wmo:42369:3,2021-03-01T22:00:00Z,27.2126,-90.2813,448.7,67.2,11144222
BP,ioos:station:wmo:42369:3,2021-03-01T22:20:00Z,27.2126,-90.2812,447.7,67.1,11144222
BP,ioos:station:wmo:42369:3,2021-03-01T22:40:00Z,27.2125,-90.2809,447.7,67.1,11144222
BP,ioos:station:wmo:42369:3,2021-03-01T23:00:00Z,27.2123,-90.2807,446.8,67.1,11144222
BP,ioos:station:wmo:42369:3,2021-03-01T23:20:00Z,27.2121,-90.2805,447.9,67.1,11144222
BP,ioos:station:wmo:42369:3,2021-03-01T23:40:00Z,27.2119,-90.2803,447.3,67.1,11144222
BP,ioos:station:wmo:42369:3,2021-03-02T00:00:00Z,27.2116,-90.2802,448.0,67.1,11144222
BP,ioos:station:wmo:42369:3,2021-03-02T00:20:00Z,27.2111,-90.2801,447.9,67.2,11144222
BP,ioos:station:wmo:42369:3,2021-03-02T00:40:00Z,27.2104,-90.2800,447.4,67.1,11144222
BP,ioos:station:wmo:42369:3,2021-03-02T01:00:00Z,27.2096,-90.2799,447.8,67.1,11144222
BP,ioos:station:wmo:42369:3,2021-03-02T01:20:00Z,27.2088,-90.2800,448.4,67.1,11144222
BP,ioos:station:wmo:42369:3,2021-03-02T01:40:00Z,27.2080,-90.2801,448.0,67.2,11144222
BP,ioos:station:wmo:42369:3,2021-03-02T02:00:00Z,27.2072,-90.2804,447.2,67.2,11144222
BP,ioos:station:wmo:42369:3,2021-03-02T02:20:00Z,27.2066,-90.2807,447.8,67.1,11144222
BP,ioos:station:wmo:42369:3,2021-03-02T02:40:00Z,27.2060,-90.2812,447.9,67.1,11144222
BP,ioos:station:wmo:42369:3,2021-03-02T03:00:00Z,27.2053,-90.2820,448.5,67.2,11144222
BP,ioos:station:wmo:42369:3,2021-03-02T03:20:00Z,27.2046,-90.2831,448.7,67.1,11144222
BP,ioos:station:wmo:42369:3,2021-03-02T03:40:00Z,27.2039,-90.2841,447.9,67.1,11144222
BP,ioos:station:wmo:42369:3,2021-03-02T04:00:00Z,27.2035,-90.2850,448.9,67.1,11144222
BP,ioos:station:wmo:42369:3,2021-03-02T04:20:00Z,27.2029,-90.2861,449.1,67.1,11144222
BP,ioos:station:wmo:42369:3,2021-03-02T04:40:00Z,27.2023,-90.2873,449.2,67.2,11144222
BP,ioos:station:wmo:42369:3,2021-03-02T05:00:00Z,27.2020,-90.2884,447.8,67.1,11144222
BP,ioos:station:wmo:42369:3,2021-03-02T05:20:00Z,27.2021,-90.2888,449.6,67.1,11144222
BP,ioos:station:wmo:42369:3,2021-03-02T05:40:00Z,27.2023,-90.2890,449.4,67.1,11144222
BP,ioos:station:wmo:42369:3,2021-03-02T06:00:00Z,27.2025,-90.2892,448.0,67.1,11144222
BP,ioos:station:wmo:42369:3,2021-03-02T06:20:00Z,27.2027,-90.2894,449.0,67.1,11144222
BP,ioos:station:wmo:42369:3,2021-03-02T06:40:00Z,27.2030,-90.2896,449.5,67.1,11144222
BP,ioos:station:wmo:42369:3,2021-03-02T07:00:00Z,27.2032,-90.2897,450.2,67.1,11144222
BP,ioos:station:wmo:42369:3,2021-03-02T07:20:00Z,27.2034,-90.2898,449.6,67.1,11144222
BP,ioos:station:wmo:42369:3,2021-03-02T07:40:00Z,27.2036,-90.2899,449.1,67.1,11144222
BP,ioos:station:wmo:42369:3,2021-03-02T08:00:00Z,27.2038,-90.2900,450.5,67.1,11144222
BP,ioos:station:wmo:42369:3,2021-03-02T08:20:00Z,27.2041,-90.2902,450.3,67.2,11144222
BP,ioos:station:wmo:42369:3,2021-03-02T08:40:00Z,27.2044,-90.2903,450.6,67.1,11144222
BP,ioos:station:wmo:42369:3,2021-03-02T09:00:00Z,27.2046,-90.2904,450.5,67.1,11144222
BP,ioos:station:wmo:42369:3,2021-03-02T09:20:00Z,27.2048,-90.2905,450.6,67.1,11144222
BP,ioos:station:wmo:42369:3,2021-03-02T09:40:00Z,27.2050,-90.2906,450.2,67.1,11144222
BP,ioos:station:wmo:42369:3,2021-03-02T10:00:00Z,27.2053,-90.2906,449.7,67.1,11144222
BP,ioos:station:wmo:42369:3,2021-03-02T10:20:00Z,27.2056,-90.2906,449.5,67.1,11144222
BP,ioos:station:wmo:42369:3,2021-03-02T10:40:00Z,27.2061,-90.2906,449.9,67.1,11144222
BP,ioos:station:wmo:42369:3,2021-03-02T11:00:00Z,27.2064,-90.2906,449.9,67.1,11144222
BP,ioos:station:wmo:42369:3,2021-03-02T11:20:00Z,27.2067,-90.2905,450.0,67.1,11144222
BP,ioos:station:wmo:42369:3,2021-03-02T11:40:00Z,27.2070,-90.2905,450.0,67.1,11144222
BP,ioos:station:wmo:42369:3,2021-03-02T12:00:00Z,27.2074,-90.2904,449.5,67.2,11144222
BP,ioos:station:wmo:42369:3,2021-03-02T12:20:00Z,27.2077,-90.2903,448.6,67.2,11144222
BP,ioos:station:wmo:42369:3,2021-03-02T12:40:00Z,27.2079,-90.2903,449.7,67.1,11144222
BP,ioos:station:wmo:42369:3,2021-03-02T13:00:00Z,27.2080,-90.2902,450.5,67.2,11144222
BP,ioos:station:wmo:42369:3,2021-03-02T13:20:00Z,27.2083,-90.2900,448.7,67.2,11144222
BP,ioos:station:wmo:42369:3,2021-03-02T13:40:00Z,27.2086,-90.2899,449.9,67.2,11144222
BP,ioos:station:wmo:42369:3,2021-03-02T14:00:00Z,27.2089,-90.2898,450.0,67.2,11144222
BP,ioos:station:wmo:42369:3,2021-03-02T14:20:00Z,27.2094,-90.2895,449.0,67.2,11144222
BP,ioos:station:wmo:42369:3,2021-03-02T14:40:00Z,27.2099,-90.2892,449.8,67.2,11144222
BP,ioos:station:wmo:42369:3,2021-03-02T15:00:00Z,27.2105,-90.2888,450.4,67.2,11144222
BP,ioos:station:wmo:42369:3,2021-03-02T15:20:00Z,27.2109,-90.2884,449.0,67.2,11144222
BP,ioos:station:wmo:42369:3,2021-03-02T15:40:00Z,27.2113,-90.2878,450.4,67.2,11144222
BP,ioos:station:wmo:42369:3,2021-03-02T16:00:00Z,27.2116,-90.2874,449.6,67.2,11144222
BP,ioos:station:wmo:42369:3,2021-03-02T16:20:00Z,27.2119,-90.2869,449.9,67.2,11144222
BP,ioos:station:wmo:42369:3,2021-03-02T16:40:00Z,27.2122,-90.2864,449.6,67.1,11144222
BP,ioos:station:wmo:42369:3,2021-03-02T17:00:00Z,27.2125,-90.2858,449.7,67.2,11144222
BP,ioos:station:wmo:42369:3,2021-03-02T17:20:00Z,27.2126,-90.2852,450.3,67.2,11144222
BP,ioos:station:wmo:42369:3,2021-03-02T17:40:00Z,27.2128,-90.2845,449.3,67.2,11144222
BP,ioos:station:wmo:42369:3,2021-03-02T18:00:00Z,27.2128,-90.2838,449.0,67.2,11144222
BP,ioos:station:wmo:42369:3,2021-03-02T18:20:00Z,27.2129,-90.2829,448.9,67.2,11144222
BP,ioos:station:wmo:42369:3,2021-03-02T18:40:00Z,27.2128,-90.2822,448.3,67.2,11144222
BP,ioos:station:wmo:42369:3,2021-03-02T19:00:00Z,27.2127,-90.2813,449.0,67.2,11144222
BP,ioos:station:wmo:42369:3,2021-03-02T19:20:00Z,27.2126,-90.2805,446.9,67.2,11144222
BP,ioos:station:wmo:42369:3,2021-03-02T19:40:00Z,27.2123,-90.2796,449.4,67.2,11144222
BP,ioos:station:wmo:42369:3,2021-03-02T20:00:00Z,27.2121,-90.2789,448.4,67.2,11144222
BP,ioos:station:wmo:42369:3,2021-03-02T20:20:00Z,27.2116,-90.2780,448.2,67.2,11144222
BP,ioos:station:wmo:42369:3,2021-03-02T20:40:00Z,27.2110,-90.2770,447.7,67.2,11144222
BP,ioos:station:wmo:42369:3,2021-03-02T21:00:00Z,27.2103,-90.2762,448.7,67.2,11144222
BP,ioos:station:wmo:42369:3,2021-03-02T21:20:00Z,27.2094,-90.2754,449.4,67.2,11144222
BP,ioos:station:wmo:42369:3,2021-03-02T21:40:00Z,27.2084,-90.2748,449.5,67.2,11144222
BP,ioos:station:wmo:42369:3,2021-03-02T22:00:00Z,27.2074,-90.2745,448.2,67.2,11144222
BP,ioos:station:wmo:42369:3,2021-03-02T22:20:00Z,27.2063,-90.2743,449.4,67.2,11144222
BP,ioos:station:wmo:42369:3,2021-03-02T22:40:00Z,27.2050,-90.2742,449.2,67.2,11144222
BP,ioos:station:wmo:42369:3,2021-03-02T23:00:00Z,27.2036,-90.2744,450.6,67.2,11144222
BP,ioos:station:wmo:42369:3,2021-03-02T23:20:00Z,27.2029,-90.2747,450.8,67.1,11144222
BP,ioos:station:wmo:42369:3,2021-03-02T23:40:00Z,27.2010,-90.2759,451.1,67.1,11144222
BP,ioos:station:wmo:42369:3,2021-03-03T00:00:00Z,27.2002,-90.2767,451.9,67.1,11144222
BP,ioos:station:wmo:42369:3,2021-03-03T00:20:00Z,27.1995,-90.2775,451.9,67.1,11144222
BP,ioos:station:wmo:42369:3,2021-03-03T00:40:00Z,27.1991,-90.2783,452.1,67.1,11144222
BP,ioos:station:wmo:42369:3,2021-03-03T01:00:00Z,27.1986,-90.2793,453.2,67.1,11144222
BP,ioos:station:wmo:42369:3,2021-03-03T01:20:00Z,27.1984,-90.2800,453.5,67.1,11144222
BP,ioos:station:wmo:42369:3,2021-03-03T01:40:00Z,27.1982,-90.2805,454.5,67.2,11144222
BP,ioos:station:wmo:42369:3,2021-03-03T02:00:00Z,27.1980,-90.2810,454.9,67.2,11144222
BP,ioos:station:wmo:42369:3,2021-03-03T02:20:00Z,27.1980,-90.2813,455.5,67.2,11144222
BP,ioos:station:wmo:42369:3,2021-03-03T02:40:00Z,27.1980,-90.2817,455.8,67.2,11144222
BP,ioos:station:wmo:42369:3,2021-03-03T03:00:00Z,27.1979,-90.2821,454.9,67.2,11144222
BP,ioos:station:wmo:42369:3,2021-03-03T03:20:00Z,27.1979,-90.2826,455.5,67.2,11144222
BP,ioos:station:wmo:42369:3,2021-03-03T03:40:00Z,27.1979,-90.2834,455.8,67.2,11144222
BP,ioos:station:wmo:42369:3,2021-03-03T04:00:00Z,27.1980,-90.2841,456.7,67.2,11144222
BP,ioos:station:wmo:42369:3,2021-03-03T04:20:00Z,27.1980,-90.2845,457.2,67.2,11144222
BP,ioos:station:wmo:42369:3,2021-03-03T04:40:00Z,27.1981,-90.2848,457.6,67.2,11144222
BP,ioos:station:wmo:42369:3,2021-03-03T05:00:00Z,27.1983,-90.2855,457.7,67.2,11144222
BP,ioos:station:wmo:42369:3,2021-03-03T05:20:00Z,27.1985,-90.2861,457.1,67.1,11144222
BP,ioos:station:wmo:42369:3,2021-03-03T05:40:00Z,27.1986,-90.2865,457.7,67.1,11144222
BP,ioos:station:wmo:42369:3,2021-03-03T06:00:00Z,27.1989,-90.2869,458.2,67.2,11144222
BP,ioos:station:wmo:42369:3,2021-03-03T06:20:00Z,27.1991,-90.2874,458.4,67.1,11144222
BP,ioos:station:wmo:42369:3,2021-03-03T06:40:00Z,27.1992,-90.2876,459.0,67.2,11144222
BP,ioos:station:wmo:42369:3,2021-03-03T07:00:00Z,27.1995,-90.2881,458.9,67.2,11144222
BP,ioos:station:wmo:42369:3,2021-03-03T07:20:00Z,27.1998,-90.2885,458.6,67.2,11144222
BP,ioos:station:wmo:42369:3,2021-03-03T07:40:00Z,27.2001,-90.2889,459.7,67.2,11144222
BP,ioos:station:wmo:42369:3,2021-03-03T08:00:00Z,27.2003,-90.2891,459.2,67.2,11144222
BP,ioos:station:wmo:42369:3,2021-03-03T08:20:00Z,27.2005,-90.2894,459.6,67.2,11144222
BP,ioos:station:wmo:42369:3,2021-03-03T08:40:00Z,27.2008,-90.2896,458.5,67.2,11144222
BP,ioos:station:wmo:42369:3,2021-03-03T09:00:00Z,27.2011,-90.2897,457.1,67.2,11144222
BP,ioos:station:wmo:42369:3,2021-03-03T09:20:00Z,27.2014,-90.2899,457.1,67.2,11144222
BP,ioos:station:wmo:42369:3,2021-03-03T09:40:00Z,27.2016,-90.2900,456.1,67.2,11144222
BP,ioos:station:wmo:42369:3,2021-03-03T10:00:00Z,27.2019,-90.2902,456.3,67.2,11144222
BP,ioos:station:wmo:42369:3,2021-03-03T10:20:00Z,27.2021,-90.2902,455.5,67.2,11144222
BP,ioos:station:wmo:42369:3,2021-03-03T10:40:00Z,27.2023,-90.2903,454.4,67.2,11144222
BP,ioos:station:wmo:42369:3,2021-03-03T11:00:00Z,27.2025,-90.2904,454.4,67.2,11144222
BP,ioos:station:wmo:42369:3,2021-03-03T11:20:00Z,27.2026,-90.2905,454.9,67.2,11144222
BP,ioos:station:wmo:42369:3,2021-03-03T11:40:00Z,27.2029,-90.2906,454.2,67.2,11144222
BP,ioos:station:wmo:42369:3,2021-03-03T12:00:00Z,27.2031,-90.2906,453.7,67.2,11144222
BP,ioos:station:wmo:42369:3,2021-03-03T12:20:00Z,27.2034,-90.2907,453.5,67.2,11144222
BP,ioos:station:wmo:42369:3,2021-03-03T12:40:00Z,27.2038,-90.2908,454.2,67.2,11144222
BP,ioos:station:wmo:42369:3,2021-03-03T13:00:00Z,27.2040,-90.2909,453.2,67.2,11144222
BP,ioos:station:wmo:42369:3,2021-03-03T13:20:00Z,27.2044,-90.2909,452.2,67.2,11144222
BP,ioos:station:wmo:42369:3,2021-03-03T13:40:00Z,27.2047,-90.2910,452.7,67.2,11144222
BP,ioos:station:wmo:42369:3,2021-03-03T14:00:00Z,27.2051,-90.2910,451.6,67.2,11144222
BP,ioos:station:wmo:42369:3,2021-03-03T14:20:00Z,27.2055,-90.2910,452.1,67.2,11144222
BP,ioos:station:wmo:42369:3,2021-03-03T14:40:00Z,27.2055,-90.2910,452.1,67.2,11144222
BP,ioos:station:wmo:42369:3,2021-03-03T15:00:00Z,27.2062,-90.2910,451.7,67.2,11144222
BP,ioos:station:wmo:42369:3,2021-03-03T15:20:00Z,27.2066,-90.2910,451.4,67.2,11144222
BP,ioos:station:wmo:42369:3,2021-03-03T15:40:00Z,27.2067,-90.2909,452.0,67.2,11144222
BP,ioos:station:wmo:42369:3,2021-03-03T16:00:00Z,27.2069,-90.2908,451.2,67.2,11144222
BP,ioos:station:wmo:42369:3,2021-03-03T16:20:00Z,27.2071,-90.2908,451.3,67.2,11144222
BP,ioos:station:wmo:42369:3,2021-03-03T16:40:00Z,27.2072,-90.2907,451.8,67.2,11144222
BP,ioos:station:wmo:42369:3,2021-03-03T17:00:00Z,27.2074,-90.2906,450.5,67.2,11144222
BP,ioos:station:wmo:42369:3,2021-03-03T17:20:00Z,27.2076,-90.2905,450.4,67.2,11144222
BP,ioos:station:wmo:42369:3,2021-03-03T17:40:00Z,27.2078,-90.2903,449.9,67.2,11144222
BP,ioos:station:wmo:42369:3,2021-03-03T18:00:00Z,27.2078,-90.2901,450.1,67.2,11144222
BP,ioos:station:wmo:42369:3,2021-03-03T18:20:00Z,27.2080,-90.2901,449.4,67.1,11144222
BP,ioos:station:wmo:42369:3,2021-03-03T18:40:00Z,27.2082,-90.2899,449.3,67.2,11144222
BP,ioos:station:wmo:42369:3,2021-03-03T19:00:00Z,27.2084,-90.2897,450.0,67.2,11144222
BP,ioos:station:wmo:42369:3,2021-03-03T19:20:00Z,27.2085,-90.2895,449.8,67.2,11144222
BP,ioos:station:wmo:42369:3,2021-03-03T19:40:00Z,27.2087,-90.2892,449.0,67.2,11144222
BP,ioos:station:wmo:42369:3,2021-03-03T20:00:00Z,27.2090,-90.2889,448.9,67.2,11144222
BP,ioos:station:wmo:42369:3,2021-03-03T20:20:00Z,27.2092,-90.2886,449.5,67.2,11144222
BP,ioos:station:wmo:42369:3,2021-03-03T20:40:00Z,27.2093,-90.2883,448.5,67.2,11144222
BP,ioos:station:wmo:42369:3,2021-03-03T21:00:00Z,27.2094,-90.2878,448.9,67.2,11144222
BP,ioos:station:wmo:42369:3,2021-03-03T21:20:00Z,27.2095,-90.2874,448.1,67.2,11144222
BP,ioos:station:wmo:42369:3,2021-03-03T21:40:00Z,27.2096,-90.2870,448.9,67.2,11144222
BP,ioos:station:wmo:42369:3,2021-03-03T22:00:00Z,27.2095,-90.2865,448.5,67.2,11144222
BP,ioos:station:wmo:42369:3,2021-03-03T22:20:00Z,27.2094,-90.2860,448.8,67.1,11144222
BP,ioos:station:wmo:42369:3,2021-03-03T22:40:00Z,27.2092,-90.2853,449.2,67.1,11144222
BP,ioos:station:wmo:42369:3,2021-03-03T23:00:00Z,27.2089,-90.2843,449.0,67.2,11144222
BP,ioos:station:wmo:42369:3,2021-03-03T23:20:00Z,27.2085,-90.2834,448.6,67.1,11144222
BP,ioos:station:wmo:42369:3,2021-03-03T23:40:00Z,27.2079,-90.2823,449.2,67.1,11144222
BP,ioos:station:wmo:42369:3,2021-03-04T00:00:00Z,27.2072,-90.2812,449.6,67.1,11144222
BP,ioos:station:wmo:42369:3,2021-03-04T00:20:00Z,27.2064,-90.2801,449.0,67.1,11144222
BP,ioos:station:wmo:42369:3,2021-03-04T00:40:00Z,27.2054,-90.2790,449.1,67.1,11144222
BP,ioos:station:wmo:42369:3,2021-03-04T01:00:00Z,27.2041,-90.2781,447.9,67.1,11144222
BP,ioos:station:wmo:42369:3,2021-03-04T01:20:00Z,27.2025,-90.2778,448.5,67.1,11144222
BP,ioos:station:wmo:42369:3,2021-03-04T01:40:00Z,27.2010,-90.2782,449.1,67.1,11144222
BP,ioos:station:wmo:42369:3,2021-03-04T02:00:00Z,27.1999,-90.2789,447.8,67.1,11144222
BP,ioos:station:wmo:42369:3,2021-03-04T02:20:00Z,27.1994,-90.2797,449.7,67.1,11144222
BP,ioos:station:wmo:42369:3,2021-03-04T02:40:00Z,27.1991,-90.2804,449.6,67.1,11144222
BP,ioos:station:wmo:42369:3,2021-03-04T03:00:00Z,27.1991,-90.2804,450.2,67.1,11144222
BP,ioos:station:wmo:42369:3,2021-03-04T03:20:00Z,27.1988,-90.2818,450.4,67.1,11144222
BP,ioos:station:wmo:42369:3,2021-03-04T03:40:00Z,27.1988,-90.2826,449.6,67.1,11144222
BP,ioos:station:wmo:42369:3,2021-03-04T04:00:00Z,27.1988,-90.2830,449.3,67.1,11144222
BP,ioos:station:wmo:42369:3,2021-03-04T04:20:00Z,27.1988,-90.2833,450.4,67.1,11144222
BP,ioos:station:wmo:42369:3,2021-03-04T04:40:00Z,27.1989,-90.2842,450.9,67.1,11144222
BP,ioos:station:wmo:42369:3,2021-03-04T05:00:00Z,27.1991,-90.2849,449.7,67.1,11144222
BP,ioos:station:wmo:42369:3,2021-03-04T05:20:00Z,27.1991,-90.2852,450.6,67.1,11144222
BP,ioos:station:wmo:42369:3,2021-03-04T05:40:00Z,27.1993,-90.2859,450.5,67.1,11144222
BP,ioos:station:wmo:42369:3,2021-03-04T06:00:00Z,27.1996,-90.2863,450.6,67.1,11144222
BP,ioos:station:wmo:42369:3,2021-03-04T06:20:00Z,27.1998,-90.2867,450.6,67.1,11144222
BP,ioos:station:wmo:42369:3,2021-03-04T06:40:00Z,27.1999,-90.2870,450.5,67.1,11144222
BP,ioos:station:wmo:42369:3,2021-03-04T07:00:00Z,27.2001,-90.2873,449.9,67.1,11144222
BP,ioos:station:wmo:42369:3,2021-03-04T07:20:00Z,27.2002,-90.2877,451.0,67.1,11144222
BP,ioos:station:wmo:42369:3,2021-03-04T07:40:00Z,27.2005,-90.2880,452.3,67.1,11144222
BP,ioos:station:wmo:42369:3,2021-03-04T08:00:00Z,27.2006,-90.2884,451.1,67.1,11144222
BP,ioos:station:wmo:42369:3,2021-03-04T08:20:00Z,27.2008,-90.2886,452.1,67.1,11144222
BP,ioos:station:wmo:42369:3,2021-03-04T08:40:00Z,27.2010,-90.2888,452.0,67.1,11144222
BP,ioos:station:wmo:42369:3,2021-03-04T09:00:00Z,27.2011,-90.2890,451.2,67.1,11144222
BP,ioos:station:wmo:42369:3,2021-03-04T09:40:00Z,27.2013,-90.2893,453.2,67.2,11144222
BP,ioos:station:wmo:42369:3,2021-03-04T10:00:00Z,27.2014,-90.2894,452.9,67.2,11144222
BP,ioos:station:wmo:42369:3,2021-03-04T10:20:00Z,27.2015,-90.2894,454.0,67.1,11144222
BP,ioos:station:wmo:42369:3,2021-03-04T10:40:00Z,27.2016,-90.2896,452.3,67.1,11144222
BP,ioos:station:wmo:42369:3,2021-03-04T11:00:00Z,27.2017,-90.2896,452.8,67.2,11144222
BP,ioos:station:wmo:42369:3,2021-03-04T11:20:00Z,27.2020,-90.2898,451.7,67.1,11144222
BP,ioos:station:wmo:42369:3,2021-03-04T11:40:00Z,27.2023,-90.2900,452.6,67.1,11144222
BP,ioos:station:wmo:42369:3,2021-03-04T12:00:00Z,27.2025,-90.2901,453.2,67.1,11144222
BP,ioos:station:wmo:42369:3,2021-03-04T12:20:00Z,27.2026,-90.2902,453.2,67.1,11144222
BP,ioos:station:wmo:42369:3,2021-03-04T12:40:00Z,27.2027,-90.2903,453.2,67.1,11144222
BP,ioos:station:wmo:42369:3,2021-03-04T13:00:00Z,27.2031,-90.2905,453.4,67.1,11144222
BP,ioos:station:wmo:42369:3,2021-03-04T13:20:00Z,27.2033,-90.2906,452.3,67.1,11144222
BP,ioos:station:wmo:42369:3,2021-03-04T13:40:00Z,27.2035,-90.2907,453.1,67.2,11144222
BP,ioos:station:wmo:42369:3,2021-03-04T14:00:00Z,27.2038,-90.2909,454.0,67.2,11144222
BP,ioos:station:wmo:42369:3,2021-03-04T14:20:00Z,27.2041,-90.2909,454.0,67.2,11144222
BP,ioos:station:wmo:42369:3,2021-03-04T14:40:00Z,27.2043,-90.2910,453.7,67.2,11144222
BP,ioos:station:wmo:42369:3,2021-03-04T15:00:00Z,27.2046,-90.2911,454.3,67.2,11144222
BP,ioos:station:wmo:42369:3,2021-03-04T15:20:00Z,27.2049,-90.2912,454.7,67.2,11144222
BP,ioos:station:wmo:42369:3,2021-03-04T15:40:00Z,27.2053,-90.2913,454.4,67.2,11144222
BP,ioos:station:wmo:42369:3,2021-03-04T16:00:00Z,27.2057,-90.2912,454.9,67.2,11144222
BP,ioos:station:wmo:42369:3,2021-03-04T16:20:00Z,27.2061,-90.2912,453.9,67.2,11144222
BP,ioos:station:wmo:42369:3,2021-03-04T16:40:00Z,27.2064,-90.2912,453.4,67.2,11144222
BP,ioos:station:wmo:42369:3,2021-03-04T17:00:00Z,27.2066,-90.2911,453.6,67.2,11144222
BP,ioos:station:wmo:42369:3,2021-03-04T17:20:00Z,27.2068,-90.2911,453.1,67.2,11144222
BP,ioos:station:wmo:42369:3,2021-03-04T17:40:00Z,27.2070,-90.2910,453.1,67.2,11144222
BP,ioos:station:wmo:42369:3,2021-03-04T18:00:00Z,27.2072,-90.2909,452.8,67.1,11144222
BP,ioos:station:wmo:42369:3,2021-03-04T18:20:00Z,27.2074,-90.2908,451.7,67.1,11144222
BP,ioos:station:wmo:42369:3,2021-03-04T18:40:00Z,27.2077,-90.2907,451.7,67.1,11144222
BP,ioos:station:wmo:42369:3,2021-03-04T19:00:00Z,27.2079,-90.2906,451.8,67.1,11144222
BP,ioos:station:wmo:42369:3,2021-03-04T19:20:00Z,27.2082,-90.2905,451.0,67.1,11144222